owner,sensor,date,latitude,longitude,vertical_datum,sea_water_practical_salinity,qcFlag 
DISL,ioos:station:DISL:BSCA:1,2012-04-01T00:00:00Z,30.3288,-87.8293,2.187,10.27,1111122 
DISL,ioos:station:DISL:BSCA:1,2012-04-01T00:30:00Z,30.3288,-87.8293,2.199,10.29,1111122 
DISL,ioos:station:DISL:BSCA:1,2012-04-01T01:00:00Z,30.3288,-87.8293,2.179,10.32,1111122 
DISL,ioos:station:DISL:BSCA:1,2012-04-01T01:30:00Z,30.3288,-87.8293,2.149,10.32,1111122 
DISL,ioos:station:DISL:BSCA:1,2012-04-01T02:00:00Z,30.3288,-87.8293,2.133,10.28,1111122 
DISL,ioos:station:DISL:BSCA:1,2012-04-01T02:30:00Z,30.3288,-87.8293,2.094,10.08,1111122 
DISL,ioos:station:DISL:BSCA:1,2012-04-01T03:00:00Z,30.3288,-87.8293,2.077,10.07,1111122 
DISL,ioos:station:DISL:BSCA:1,2012-04-01T03:30:00Z,30.3288,-87.8293,2.069,10.07,1111122 
DISL,ioos:station:DISL:BSCA:1,2012-04-01T04:00:00Z,30.3288,-87.8293,2.037,10.07,1111122 
DISL,ioos:station:DISL:BSCA:1,2012-04-01T04:30:00Z,30.3288,-87.8293,2.013,10.06,1111122 
DISL,ioos:station:DISL:BSCA:1,2012-04-01T05:00:00Z,30.3288,-87.8293,1.995,10.07,1111122 
DISL,ioos:station:DISL:BSCA:1,2012-04-01T05:30:00Z,30.3288,-87.8293,1.955,10.08,1111122 
DISL,ioos:station:DISL:BSCA:1,2012-04-01T06:00:00Z,30.3288,-87.8293,1.921,9.94,1111122 
DISL,ioos:station:DISL:BSCA:1,2012-04-01T06:30:00Z,30.3288,-87.8293,1.898,9.94,1111122 
DISL,ioos:station:DISL:BSCA:1,2012-04-01T07:00:00Z,30.3288,-87.8293,1.862,10.09,1111122 
DISL,ioos:station:DISL:BSCA:1,2012-04-01T07:30:00Z,30.3288,-87.8293,1.839,10.08,1111122 
DISL,ioos:station:DISL:BSCA:1,2012-04-01T08:00:00Z,30.3288,-87.8293,1.826,10.09,1111122 
DISL,ioos:station:DISL:BSCA:1,2012-04-01T08:30:00Z,30.3288,-87.8293,1.809,10.08,1111122 
DISL,ioos:station:DISL:BSCA:1,2012-04-01T09:00:00Z,30.3288,-87.8293,1.81,10.06,1111122 
DISL,ioos:station:DISL:BSCA:1,2012-04-01T09:30:00Z,30.3288,-87.8293,1.812,10.06,1111122 
DISL,ioos:station:DISL:BSCA:1,2012-04-01T10:00:00Z,30.3288,-87.8293,1.805,10.06,1111122 
DISL,ioos:station:DISL:BSCA:1,2012-04-01T10:30:00Z,30.3288,-87.8293,1.798,10.07,1111122 
DISL,ioos:station:DISL:BSCA:1,2012-04-01T11:00:00Z,30.3288,-87.8293,1.803,10.07,1111122 
DISL,ioos:station:DISL:BSCA:1,2012-04-01T11:30:00Z,30.3288,-87.8293,1.798,10.07,1111122 
DISL,ioos:station:DISL:BSCA:1,2012-04-01T12:00:00Z,30.3288,-87.8293,1.808,10.09,1111122 
DISL,ioos:station:DISL:BSCA:1,2012-04-01T12:30:00Z,30.3288,-87.8293,1.824,10.1,1111122 
DISL,ioos:station:DISL:BSCA:1,2012-04-01T13:00:00Z,30.3288,-87.8293,1.835,10.11,1111122 
DISL,ioos:station:DISL:BSCA:1,2012-04-01T13:30:00Z,30.3288,-87.8293,1.846,10.13,1111122 
DISL,ioos:station:DISL:BSCA:1,2012-04-01T14:00:00Z,30.3288,-87.8293,1.852,10.14,1111122 
DISL,ioos:station:DISL:BSCA:1,2012-04-01T14:30:00Z,30.3288,-87.8293,1.888,10.15,1111122 
DISL,ioos:station:DISL:BSCA:1,2012-04-01T15:00:00Z,30.3288,-87.8293,1.889,10.09,1111122 
DISL,ioos:station:DISL:BSCA:1,2012-04-01T15:30:00Z,30.3288,-87.8293,1.918,10.14,1111122 
DISL,ioos:station:DISL:BSCA:1,2012-04-01T16:00:00Z,30.3288,-87.8293,1.936,10.15,1111122 
DISL,ioos:station:DISL:BSCA:1,2012-04-01T16:30:00Z,30.3288,-87.8293,1.945,10.17,1111122 
DISL,ioos:station:DISL:BSCA:1,2012-04-01T17:00:00Z,30.3288,-87.8293,1.972,10.39,1111122 
DISL,ioos:station:DISL:BSCA:1,2012-04-01T17:30:00Z,30.3288,-87.8293,1.988,10.44,1111122 
DISL,ioos:station:DISL:BSCA:1,2012-04-01T18:00:00Z,30.3288,-87.8293,2.01,10.44,1111122 
DISL,ioos:station:DISL:BSCA:1,2012-04-01T18:30:00Z,30.3288,-87.8293,2.03,10.49,1111122 
DISL,ioos:station:DISL:BSCA:1,2012-04-01T19:00:00Z,30.3288,-87.8293,2.052,10.54,1111122 
DISL,ioos:station:DISL:BSCA:1,2012-04-01T19:30:00Z,30.3288,-87.8293,2.054,10.55,1111122 
DISL,ioos:station:DISL:BSCA:1,2012-04-01T20:00:00Z,30.3288,-87.8293,2.053,10.53,1111122 
DISL,ioos:station:DISL:BSCA:1,2012-04-01T20:30:00Z,30.3288,-87.8293,2.066,10.62,1111122 
DISL,ioos:station:DISL:BSCA:1,2012-04-01T21:00:00Z,30.3288,-87.8293,2.065,10.67,1111122 
DISL,ioos:station:DISL:BSCA:1,2012-04-01T21:30:00Z,30.3288,-87.8293,2.085,10.7,1111122 
DISL,ioos:station:DISL:BSCA:1,2012-04-01T22:00:00Z,30.3288,-87.8293,2.088,10.67,1111122 
DISL,ioos:station:DISL:BSCA:1,2012-04-01T22:30:00Z,30.3288,-87.8293,2.105,10.66,1111122 
DISL,ioos:station:DISL:BSCA:1,2012-04-01T23:00:00Z,30.3288,-87.8293,2.112,10.66,1111122 
DISL,ioos:station:DISL:BSCA:1,2012-04-01T23:30:00Z,30.3288,-87.8293,2.109,10.67,1111122 
DISL,ioos:station:DISL:BSCA:1,2012-04-02T00:00:00Z,30.3288,-87.8293,2.108,10.68,1111122 
DISL,ioos:station:DISL:BSCA:1,2012-04-02T00:30:00Z,30.3288,-87.8293,2.105,10.67,1111122 
DISL,ioos:station:DISL:BSCA:1,2012-04-02T01:00:00Z,30.3288,-87.8293,2.107,10.68,1111122 
DISL,ioos:station:DISL:BSCA:1,2012-04-02T01:30:00Z,30.3288,-87.8293,2.1,10.7,1111122 
DISL,ioos:station:DISL:BSCA:1,2012-04-02T02:00:00Z,30.3288,-87.8293,2.068,10.72,1111122 
DISL,ioos:station:DISL:BSCA:1,2012-04-02T02:30:00Z,30.3288,-87.8293,2.048,10.73,1111122 
DISL,ioos:station:DISL:BSCA:1,2012-04-02T03:00:00Z,30.3288,-87.8293,2.02,10.75,1111122 
DISL,ioos:station:DISL:BSCA:1,2012-04-02T03:30:00Z,30.3288,-87.8293,2.007,10.76,1111122 
DISL,ioos:station:DISL:BSCA:1,2012-04-02T04:00:00Z,30.3288,-87.8293,1.995,10.77,1111122 
DISL,ioos:station:DISL:BSCA:1,2012-04-02T04:30:00Z,30.3288,-87.8293,1.991,10.78,1111122 
DISL,ioos:station:DISL:BSCA:1,2012-04-02T05:00:00Z,30.3288,-87.8293,1.977,10.78,1111122 
DISL,ioos:station:DISL:BSCA:1,2012-04-02T05:30:00Z,30.3288,-87.8293,1.962,10.79,1111122 
DISL,ioos:station:DISL:BSCA:1,2012-04-02T06:00:00Z,30.3288,-87.8293,1.918,10.82,1111122 
DISL,ioos:station:DISL:BSCA:1,2012-04-02T06:30:00Z,30.3288,-87.8293,1.897,10.87,1111122 
DISL,ioos:station:DISL:BSCA:1,2012-04-02T07:00:00Z,30.3288,-87.8293,1.873,10.89,1111122 
DISL,ioos:station:DISL:BSCA:1,2012-04-02T07:30:00Z,30.3288,-87.8293,1.862,10.93,1111122 
DISL,ioos:station:DISL:BSCA:1,2012-04-02T08:00:00Z,30.3288,-87.8293,1.858,10.93,1111122 
DISL,ioos:station:DISL:BSCA:1,2012-04-02T08:30:00Z,30.3288,-87.8293,1.86,10.94,1111122 
DISL,ioos:station:DISL:BSCA:1,2012-04-02T09:00:00Z,30.3288,-87.8293,1.849,10.96,1111122 
DISL,ioos:station:DISL:BSCA:1,2012-04-02T09:30:00Z,30.3288,-87.8293,1.833,10.94,1111122 
DISL,ioos:station:DISL:BSCA:1,2012-04-02T10:00:00Z,30.3288,-87.8293,1.823,11.06,1111122 
DISL,ioos:station:DISL:BSCA:1,2012-04-02T10:30:00Z,30.3288,-87.8293,1.81,11.07,1111122 
DISL,ioos:station:DISL:BSCA:1,2012-04-02T11:00:00Z,30.3288,-87.8293,1.803,11.04,1111122 
DISL,ioos:station:DISL:BSCA:1,2012-04-02T11:30:00Z,30.3288,-87.8293,1.8,11.05,1111122 
DISL,ioos:station:DISL:BSCA:1,2012-04-02T12:00:00Z,30.3288,-87.8293,1.802,11.04,1111122 
DISL,ioos:station:DISL:BSCA:1,2012-04-02T12:30:00Z,30.3288,-87.8293,1.814,11.12,1111122 
DISL,ioos:station:DISL:BSCA:1,2012-04-02T13:00:00Z,30.3288,-87.8293,1.824,11.02,1111122 
DISL,ioos:station:DISL:BSCA:1,2012-04-02T13:30:00Z,30.3288,-87.8293,1.849,11.02,1111122 
DISL,ioos:station:DISL:BSCA:1,2012-04-02T14:00:00Z,30.3288,-87.8293,1.868,11.04,1111122 
DISL,ioos:station:DISL:BSCA:1,2012-04-02T14:30:00Z,30.3288,-87.8293,1.891,11.09,1111122 
DISL,ioos:station:DISL:BSCA:1,2012-04-02T15:00:00Z,30.3288,-87.8293,1.909,11.04,1111122 
DISL,ioos:station:DISL:BSCA:1,2012-04-02T15:30:00Z,30.3288,-87.8293,1.912,11.03,1111122 
DISL,ioos:station:DISL:BSCA:1,2012-04-02T16:00:00Z,30.3288,-87.8293,1.921,11.03,1111122 
DISL,ioos:station:DISL:BSCA:1,2012-04-02T16:30:00Z,30.3288,-87.8293,1.925,11.04,1111122 
DISL,ioos:station:DISL:BSCA:1,2012-04-02T17:00:00Z,30.3288,-87.8293,1.941,11.07,1111122 
DISL,ioos:station:DISL:BSCA:1,2012-04-02T17:30:00Z,30.3288,-87.8293,1.945,11.09,1111122 
DISL,ioos:station:DISL:BSCA:1,2012-04-02T18:00:00Z,30.3288,-87.8293,1.964,11.05,1111122 
DISL,ioos:station:DISL:BSCA:1,2012-04-02T18:30:00Z,30.3288,-87.8293,1.967,11.02,1111122 
DISL,ioos:station:DISL:BSCA:1,2012-04-02T19:00:00Z,30.3288,-87.8293,1.979,10.92,1111122 
DISL,ioos:station:DISL:BSCA:1,2012-04-02T19:30:00Z,30.3288,-87.8293,1.969,10.85,1111122 
DISL,ioos:station:DISL:BSCA:1,2012-04-02T20:00:00Z,30.3288,-87.8293,1.984,10.85,1111122 
DISL,ioos:station:DISL:BSCA:1,2012-04-02T20:30:00Z,30.3288,-87.8293,1.99,10.83,1111122 
DISL,ioos:station:DISL:BSCA:1,2012-04-02T21:00:00Z,30.3288,-87.8293,2.006,10.83,1111122 
DISL,ioos:station:DISL:BSCA:1,2012-04-02T21:30:00Z,30.3288,-87.8293,2.011,10.83,1111122 
DISL,ioos:station:DISL:BSCA:1,2012-04-02T22:00:00Z,30.3288,-87.8293,2.035,10.84,1111122 
DISL,ioos:station:DISL:BSCA:1,2012-04-02T22:30:00Z,30.3288,-87.8293,2.055,10.86,1111122 
DISL,ioos:station:DISL:BSCA:1,2012-04-02T23:00:00Z,30.3288,-87.8293,2.098,10.85,1111122 
DISL,ioos:station:DISL:BSCA:1,2012-04-02T23:30:00Z,30.3288,-87.8293,2.128,10.83,1111122 
DISL,ioos:station:DISL:BSCA:1,2012-04-03T00:00:00Z,30.3288,-87.8293,2.158,10.81,1111122 
DISL,ioos:station:DISL:BSCA:1,2012-04-03T00:30:00Z,30.3288,-87.8293,2.171,10.7,1111122 
DISL,ioos:station:DISL:BSCA:1,2012-04-03T01:00:00Z,30.3288,-87.8293,2.183,10.82,1111122 
DISL,ioos:station:DISL:BSCA:1,2012-04-03T01:30:00Z,30.3288,-87.8293,2.17,10.7,1111122 
DISL,ioos:station:DISL:BSCA:1,2012-04-03T02:00:00Z,30.3288,-87.8293,2.131,10.42,1111122 
DISL,ioos:station:DISL:BSCA:1,2012-04-03T02:30:00Z,30.3288,-87.8293,2.154,10.42,1111122 
DISL,ioos:station:DISL:BSCA:1,2012-04-03T03:00:00Z,30.3288,-87.8293,2.121,10.94,1111122 
DISL,ioos:station:DISL:BSCA:1,2012-04-03T03:30:00Z,30.3288,-87.8293,2.116,10.94,1111122 
DISL,ioos:station:DISL:BSCA:1,2012-04-03T04:00:00Z,30.3288,-87.8293,2.154,10.47,1111122 
DISL,ioos:station:DISL:BSCA:1,2012-04-03T04:30:00Z,30.3288,-87.8293,2.128,10.41,1111122 
DISL,ioos:station:DISL:BSCA:1,2012-04-03T05:00:00Z,30.3288,-87.8293,2.204,10.63,1111122 
DISL,ioos:station:DISL:BSCA:1,2012-04-03T05:30:00Z,30.3288,-87.8293,2.063,10.51,1111122 
DISL,ioos:station:DISL:BSCA:1,2012-04-03T06:00:00Z,30.3288,-87.8293,1.98,10.53,1111122 
DISL,ioos:station:DISL:BSCA:1,2012-04-03T06:30:00Z,30.3288,-87.8293,1.884,10.64,1111122 
DISL,ioos:station:DISL:BSCA:1,2012-04-03T07:00:00Z,30.3288,-87.8293,1.804,10.47,1111122 
DISL,ioos:station:DISL:BSCA:1,2012-04-03T07:30:00Z,30.3288,-87.8293,1.929,10.49,1111122 
DISL,ioos:station:DISL:BSCA:1,2012-04-03T08:00:00Z,30.3288,-87.8293,1.864,10.55,1111122 
DISL,ioos:station:DISL:BSCA:1,2012-04-03T08:30:00Z,30.3288,-87.8293,1.82,10.86,1111122 
DISL,ioos:station:DISL:BSCA:1,2012-04-03T09:00:00Z,30.3288,-87.8293,1.823,10.68,1111122 
DISL,ioos:station:DISL:BSCA:1,2012-04-03T09:30:00Z,30.3288,-87.8293,1.776,10.59,1111122 
DISL,ioos:station:DISL:BSCA:1,2012-04-03T10:00:00Z,30.3288,-87.8293,1.813,10.91,1111122 
DISL,ioos:station:DISL:BSCA:1,2012-04-03T10:30:00Z,30.3288,-87.8293,1.802,10.91,1111122 
DISL,ioos:station:DISL:BSCA:1,2012-04-03T11:00:00Z,30.3288,-87.8293,1.735,10.92,1111122 
DISL,ioos:station:DISL:BSCA:1,2012-04-03T11:30:00Z,30.3288,-87.8293,1.718,10.49,1111122 
DISL,ioos:station:DISL:BSCA:1,2012-04-03T12:00:00Z,30.3288,-87.8293,1.727,10.93,1111122 
DISL,ioos:station:DISL:BSCA:1,2012-04-03T12:30:00Z,30.3288,-87.8293,1.83,10.91,1111122 
DISL,ioos:station:DISL:BSCA:1,2012-04-03T13:00:00Z,30.3288,-87.8293,1.838,10.9,1111122 
DISL,ioos:station:DISL:BSCA:1,2012-04-03T13:30:00Z,30.3288,-87.8293,1.924,10.88,1111122 
DISL,ioos:station:DISL:BSCA:1,2012-04-03T14:00:00Z,30.3288,-87.8293,1.955,10.87,1111122 
DISL,ioos:station:DISL:BSCA:1,2012-04-03T14:30:00Z,30.3288,-87.8293,2.001,10.87,1111122 
DISL,ioos:station:DISL:BSCA:1,2012-04-03T15:00:00Z,30.3288,-87.8293,2.013,10.92,1111122 
DISL,ioos:station:DISL:BSCA:1,2012-04-03T15:30:00Z,30.3288,-87.8293,2.018,10.85,1111122 
DISL,ioos:station:DISL:BSCA:1,2012-04-03T16:00:00Z,30.3288,-87.8293,2.027,10.86,1111122 
DISL,ioos:station:DISL:BSCA:1,2012-04-03T16:30:00Z,30.3288,-87.8293,2.047,10.84,1111122 
DISL,ioos:station:DISL:BSCA:1,2012-04-03T17:00:00Z,30.3288,-87.8293,2.04,10.88,1111122 
DISL,ioos:station:DISL:BSCA:1,2012-04-03T17:30:00Z,30.3288,-87.8293,2.052,10.89,1111122 
DISL,ioos:station:DISL:BSCA:1,2012-04-03T18:00:00Z,30.3288,-87.8293,2.04,10.85,1111122 
DISL,ioos:station:DISL:BSCA:1,2012-04-03T18:30:00Z,30.3288,-87.8293,2.022,10.86,1111122 
DISL,ioos:station:DISL:BSCA:1,2012-04-03T19:00:00Z,30.3288,-87.8293,1.976,10.87,1111122 
DISL,ioos:station:DISL:BSCA:1,2012-04-03T19:30:00Z,30.3288,-87.8293,1.96,10.89,1111122 
DISL,ioos:station:DISL:BSCA:1,2012-04-03T20:00:00Z,30.3288,-87.8293,1.937,10.93,1111122 
DISL,ioos:station:DISL:BSCA:1,2012-04-03T20:30:00Z,30.3288,-87.8293,1.91,10.94,1111122 
DISL,ioos:station:DISL:BSCA:1,2012-04-03T21:00:00Z,30.3288,-87.8293,1.903,10.97,1111122 
DISL,ioos:station:DISL:BSCA:1,2012-04-03T21:30:00Z,30.3288,-87.8293,1.91,10.98,1111122 
DISL,ioos:station:DISL:BSCA:1,2012-04-03T22:00:00Z,30.3288,-87.8293,1.894,10.98,1111122 
DISL,ioos:station:DISL:BSCA:1,2012-04-03T22:30:00Z,30.3288,-87.8293,1.903,10.98,1111122 
DISL,ioos:station:DISL:BSCA:1,2012-04-03T23:00:00Z,30.3288,-87.8293,1.892,10.98,1111122 
DISL,ioos:station:DISL:BSCA:1,2012-04-03T23:30:00Z,30.3288,-87.8293,1.901,10.95,1111122 
DISL,ioos:station:DISL:BSCA:1,2012-04-04T00:00:00Z,30.3288,-87.8293,1.907,10.94,1111122 
DISL,ioos:station:DISL:BSCA:1,2012-04-04T00:30:00Z,30.3288,-87.8293,1.929,10.91,1111122 
DISL,ioos:station:DISL:BSCA:1,2012-04-04T01:00:00Z,30.3288,-87.8293,1.943,10.89,1111122 
DISL,ioos:station:DISL:BSCA:1,2012-04-04T01:30:00Z,30.3288,-87.8293,1.956,10.88,1111122 
DISL,ioos:station:DISL:BSCA:1,2012-04-04T02:00:00Z,30.3288,-87.8293,1.97,10.87,1111122 
DISL,ioos:station:DISL:BSCA:1,2012-04-04T02:30:00Z,30.3288,-87.8293,1.983,10.87,1111122 
DISL,ioos:station:DISL:BSCA:1,2012-04-04T03:00:00Z,30.3288,-87.8293,1.996,10.86,1111122 
DISL,ioos:station:DISL:BSCA:1,2012-04-04T03:30:00Z,30.3288,-87.8293,1.996,10.86,1111122 
DISL,ioos:station:DISL:BSCA:1,2012-04-04T04:00:00Z,30.3288,-87.8293,2.003,10.86,1111122 
DISL,ioos:station:DISL:BSCA:1,2012-04-04T04:30:00Z,30.3288,-87.8293,2.011,10.88,1111122 
DISL,ioos:station:DISL:BSCA:1,2012-04-04T05:00:00Z,30.3288,-87.8293,2.015,10.89,1111122 
DISL,ioos:station:DISL:BSCA:1,2012-04-04T05:30:00Z,30.3288,-87.8293,2.002,10.87,1111122 
DISL,ioos:station:DISL:BSCA:1,2012-04-04T06:00:00Z,30.3288,-87.8293,1.99,10.88,1111122 
DISL,ioos:station:DISL:BSCA:1,2012-04-04T06:30:00Z,30.3288,-87.8293,1.976,10.87,1111122 
DISL,ioos:station:DISL:BSCA:1,2012-04-04T07:00:00Z,30.3288,-87.8293,1.959,10.88,1111122 
DISL,ioos:station:DISL:BSCA:1,2012-04-04T07:30:00Z,30.3288,-87.8293,1.934,10.89,1111122 
DISL,ioos:station:DISL:BSCA:1,2012-04-04T08:00:00Z,30.3288,-87.8293,1.935,10.9,1111122 
DISL,ioos:station:DISL:BSCA:1,2012-04-04T08:30:00Z,30.3288,-87.8293,1.879,10.91,1111122 
DISL,ioos:station:DISL:BSCA:1,2012-04-04T09:00:00Z,30.3288,-87.8293,1.922,10.83,1111122 
DISL,ioos:station:DISL:BSCA:1,2012-04-04T09:30:00Z,30.3288,-87.8293,2.091,10.79,1111122 
DISL,ioos:station:DISL:BSCA:1,2012-04-04T10:00:00Z,30.3288,-87.8293,2.081,10.7,1111122 
DISL,ioos:station:DISL:BSCA:1,2012-04-04T10:30:00Z,30.3288,-87.8293,1.913,10.79,1111122 
DISL,ioos:station:DISL:BSCA:1,2012-04-04T11:00:00Z,30.3288,-87.8293,1.812,10.84,1111122 
DISL,ioos:station:DISL:BSCA:1,2012-04-04T11:30:00Z,30.3288,-87.8293,1.76,10.47,1111122 
DISL,ioos:station:DISL:BSCA:1,2012-04-04T12:00:00Z,30.3288,-87.8293,1.788,10.88,1111122 
DISL,ioos:station:DISL:BSCA:1,2012-04-04T12:30:00Z,30.3288,-87.8293,1.794,10.86,1111122 
DISL,ioos:station:DISL:BSCA:1,2012-04-04T13:00:00Z,30.3288,-87.8293,1.944,10.76,1111122 
DISL,ioos:station:DISL:BSCA:1,2012-04-04T13:30:00Z,30.3288,-87.8293,1.917,10.8,1111122 
DISL,ioos:station:DISL:BSCA:1,2012-04-04T14:00:00Z,30.3288,-87.8293,1.988,10.75,1111122 
DISL,ioos:station:DISL:BSCA:1,2012-04-04T14:30:00Z,30.3288,-87.8293,1.969,10.79,1111122 
DISL,ioos:station:DISL:BSCA:1,2012-04-04T15:00:00Z,30.3288,-87.8293,1.9,10.83,1111122 
DISL,ioos:station:DISL:BSCA:1,2012-04-04T15:30:00Z,30.3288,-87.8293,2.013,10.79,1111122 
DISL,ioos:station:DISL:BSCA:1,2012-04-04T16:00:00Z,30.3288,-87.8293,2.143,10.78,1111122 
DISL,ioos:station:DISL:BSCA:1,2012-04-04T16:30:00Z,30.3288,-87.8293,2.111,10.79,1111122 
DISL,ioos:station:DISL:BSCA:1,2012-04-04T17:00:00Z,30.3288,-87.8293,2.017,11.07,1111122 
DISL,ioos:station:DISL:BSCA:1,2012-04-04T17:30:00Z,30.3288,-87.8293,1.948,11.0,1111122 
DISL,ioos:station:DISL:BSCA:1,2012-04-04T18:00:00Z,30.3288,-87.8293,1.777,11.02,1111122 
DISL,ioos:station:DISL:BSCA:1,2012-04-04T18:30:00Z,30.3288,-87.8293,1.601,11.17,1111122 
DISL,ioos:station:DISL:BSCA:1,2012-04-04T19:00:00Z,30.3288,-87.8293,1.652,11.11,1111122 
DISL,ioos:station:DISL:BSCA:1,2012-04-04T19:30:00Z,30.3288,-87.8293,1.691,11.05,1111122 
DISL,ioos:station:DISL:BSCA:1,2012-04-04T20:00:00Z,30.3288,-87.8293,1.838,10.96,1111122 
DISL,ioos:station:DISL:BSCA:1,2012-04-04T20:30:00Z,30.3288,-87.8293,2.058,11.02,1111122 
DISL,ioos:station:DISL:BSCA:1,2012-04-04T21:00:00Z,30.3288,-87.8293,2.052,10.84,1111122 
DISL,ioos:station:DISL:BSCA:1,2012-04-04T21:30:00Z,30.3288,-87.8293,2.112,10.82,1111122 
DISL,ioos:station:DISL:BSCA:1,2012-04-04T22:00:00Z,30.3288,-87.8293,2.123,10.81,1111122 
DISL,ioos:station:DISL:BSCA:1,2012-04-04T22:30:00Z,30.3288,-87.8293,2.034,10.93,1111122 
DISL,ioos:station:DISL:BSCA:1,2012-04-04T23:00:00Z,30.3288,-87.8293,2.034,11.04,1111122 
DISL,ioos:station:DISL:BSCA:1,2012-04-04T23:30:00Z,30.3288,-87.8293,2.013,11.07,1111122 
DISL,ioos:station:DISL:BSCA:1,2012-04-05T00:00:00Z,30.3288,-87.8293,2.021,11.07,1111122 
DISL,ioos:station:DISL:BSCA:1,2012-04-05T00:30:00Z,30.3288,-87.8293,2.044,11.04,1111122 
DISL,ioos:station:DISL:BSCA:1,2012-04-05T01:00:00Z,30.3288,-87.8293,2.083,10.94,1111122 
DISL,ioos:station:DISL:BSCA:1,2012-04-05T01:30:00Z,30.3288,-87.8293,2.08,11.03,1111122 
DISL,ioos:station:DISL:BSCA:1,2012-04-05T02:00:00Z,30.3288,-87.8293,2.068,11.02,1111122 
DISL,ioos:station:DISL:BSCA:1,2012-04-05T02:30:00Z,30.3288,-87.8293,2.02,11.0,1111122 
DISL,ioos:station:DISL:BSCA:1,2012-04-05T03:00:00Z,30.3288,-87.8293,1.993,11.01,1111122 
DISL,ioos:station:DISL:BSCA:1,2012-04-05T03:30:00Z,30.3288,-87.8293,1.978,11.03,1111122 
DISL,ioos:station:DISL:BSCA:1,2012-04-05T04:00:00Z,30.3288,-87.8293,1.997,11.01,1111122 
DISL,ioos:station:DISL:BSCA:1,2012-04-05T04:30:00Z,30.3288,-87.8293,2.011,10.96,1111122 
DISL,ioos:station:DISL:BSCA:1,2012-04-05T05:00:00Z,30.3288,-87.8293,2.003,10.95,1111122 
DISL,ioos:station:DISL:BSCA:1,2012-04-05T05:30:00Z,30.3288,-87.8293,2.003,10.95,1111122 
DISL,ioos:station:DISL:BSCA:1,2012-04-05T06:00:00Z,30.3288,-87.8293,1.966,11.02,1111122 
DISL,ioos:station:DISL:BSCA:1,2012-04-05T06:30:00Z,30.3288,-87.8293,1.974,11.02,1111122 
DISL,ioos:station:DISL:BSCA:1,2012-04-05T07:00:00Z,30.3288,-87.8293,1.952,11.03,1111122 
DISL,ioos:station:DISL:BSCA:1,2012-04-05T07:30:00Z,30.3288,-87.8293,1.947,11.02,1111122 
DISL,ioos:station:DISL:BSCA:1,2012-04-05T08:00:00Z,30.3288,-87.8293,1.94,11.02,1111122 
DISL,ioos:station:DISL:BSCA:1,2012-04-05T08:30:00Z,30.3288,-87.8293,1.909,11.01,1111122 
DISL,ioos:station:DISL:BSCA:1,2012-04-05T09:00:00Z,30.3288,-87.8293,1.919,11.02,1111122 
DISL,ioos:station:DISL:BSCA:1,2012-04-05T09:30:00Z,30.3288,-87.8293,1.915,11.04,1111122 
DISL,ioos:station:DISL:BSCA:1,2012-04-05T10:00:00Z,30.3288,-87.8293,1.946,11.04,1111122 
DISL,ioos:station:DISL:BSCA:1,2012-04-05T10:30:00Z,30.3288,-87.8293,1.951,11.02,1111122 
DISL,ioos:station:DISL:BSCA:1,2012-04-05T11:00:00Z,30.3288,-87.8293,1.969,11.01,1111122 
DISL,ioos:station:DISL:BSCA:1,2012-04-05T11:30:00Z,30.3288,-87.8293,1.968,10.96,1111122 
DISL,ioos:station:DISL:BSCA:1,2012-04-05T12:00:00Z,30.3288,-87.8293,2.003,11.02,1111122 
DISL,ioos:station:DISL:BSCA:1,2012-04-05T12:30:00Z,30.3288,-87.8293,2.016,10.99,1111122 
DISL,ioos:station:DISL:BSCA:1,2012-04-05T13:00:00Z,30.3288,-87.8293,2.04,11.04,1111122 
DISL,ioos:station:DISL:BSCA:1,2012-04-05T13:30:00Z,30.3288,-87.8293,2.077,10.81,1111122 
DISL,ioos:station:DISL:BSCA:1,2012-04-05T14:00:00Z,30.3288,-87.8293,2.102,10.74,1111122 
DISL,ioos:station:DISL:BSCA:1,2012-04-05T14:30:00Z,30.3288,-87.8293,2.107,10.75,1111122 
DISL,ioos:station:DISL:BSCA:1,2012-04-05T15:00:00Z,30.3288,-87.8293,2.081,10.77,1111122 
DISL,ioos:station:DISL:BSCA:1,2012-04-05T15:30:00Z,30.3288,-87.8293,2.074,10.81,1111122 
DISL,ioos:station:DISL:BSCA:1,2012-04-05T16:00:00Z,30.3288,-87.8293,2.065,10.83,1111122 
DISL,ioos:station:DISL:BSCA:1,2012-04-05T16:30:00Z,30.3288,-87.8293,2.042,10.98,1111122 
DISL,ioos:station:DISL:BSCA:1,2012-04-05T17:00:00Z,30.3288,-87.8293,2.062,10.88,1111122 
DISL,ioos:station:DISL:BSCA:1,2012-04-05T17:30:00Z,30.3288,-87.8293,2.045,11.05,1111122 
DISL,ioos:station:DISL:BSCA:1,2012-04-05T18:00:00Z,30.3288,-87.8293,2.08,10.82,1111122 
DISL,ioos:station:DISL:BSCA:1,2012-04-05T18:30:00Z,30.3288,-87.8293,2.084,10.81,1111122 
DISL,ioos:station:DISL:BSCA:1,2012-04-05T19:00:00Z,30.3288,-87.8293,2.066,10.81,1111122 
DISL,ioos:station:DISL:BSCA:1,2012-04-05T19:30:00Z,30.3288,-87.8293,2.096,10.87,1111122 
DISL,ioos:station:DISL:BSCA:1,2012-04-05T20:00:00Z,30.3288,-87.8293,1.986,10.98,1111122 
DISL,ioos:station:DISL:BSCA:1,2012-04-05T20:30:00Z,30.3288,-87.8293,2.08,11.15,1111122 
DISL,ioos:station:DISL:BSCA:1,2012-04-05T21:00:00Z,30.3288,-87.8293,2.038,10.97,1111122 
DISL,ioos:station:DISL:BSCA:1,2012-04-05T21:30:00Z,30.3288,-87.8293,1.971,11.08,1111122 
DISL,ioos:station:DISL:BSCA:1,2012-04-05T22:00:00Z,30.3288,-87.8293,1.952,11.11,1111122 
DISL,ioos:station:DISL:BSCA:1,2012-04-05T22:30:00Z,30.3288,-87.8293,1.939,11.05,1111122 
DISL,ioos:station:DISL:BSCA:1,2012-04-05T23:00:00Z,30.3288,-87.8293,1.945,11.14,1111122 
DISL,ioos:station:DISL:BSCA:1,2012-04-05T23:30:00Z,30.3288,-87.8293,1.945,11.02,1111122 
DISL,ioos:station:DISL:BSCA:1,2012-04-06T00:00:00Z,30.3288,-87.8293,1.929,11.07,1111122 
DISL,ioos:station:DISL:BSCA:1,2012-04-06T00:30:00Z,30.3288,-87.8293,1.869,11.12,1111122 
DISL,ioos:station:DISL:BSCA:1,2012-04-06T01:00:00Z,30.3288,-87.8293,1.85,11.26,1111122 
DISL,ioos:station:DISL:BSCA:1,2012-04-06T01:30:00Z,30.3288,-87.8293,1.86,11.32,1111122 
DISL,ioos:station:DISL:BSCA:1,2012-04-06T02:00:00Z,30.3288,-87.8293,1.848,11.33,1111122 
DISL,ioos:station:DISL:BSCA:1,2012-04-06T02:30:00Z,30.3288,-87.8293,1.879,11.4,1111122 
DISL,ioos:station:DISL:BSCA:1,2012-04-06T03:00:00Z,30.3288,-87.8293,1.879,11.49,1111122 
DISL,ioos:station:DISL:BSCA:1,2012-04-06T03:30:00Z,30.3288,-87.8293,1.891,11.48,1111122 
DISL,ioos:station:DISL:BSCA:1,2012-04-06T04:00:00Z,30.3288,-87.8293,1.912,11.48,1111122 
DISL,ioos:station:DISL:BSCA:1,2012-04-06T04:30:00Z,30.3288,-87.8293,1.951,11.37,1111122 
DISL,ioos:station:DISL:BSCA:1,2012-04-06T05:00:00Z,30.3288,-87.8293,2.005,11.25,1111122 
DISL,ioos:station:DISL:BSCA:1,2012-04-06T05:30:00Z,30.3288,-87.8293,2.003,11.41,1111122 
DISL,ioos:station:DISL:BSCA:1,2012-04-06T06:00:00Z,30.3288,-87.8293,1.981,11.52,1111122 
DISL,ioos:station:DISL:BSCA:1,2012-04-06T06:30:00Z,30.3288,-87.8293,1.929,11.61,1111122 
DISL,ioos:station:DISL:BSCA:1,2012-04-06T07:00:00Z,30.3288,-87.8293,1.873,11.7,1111122 
DISL,ioos:station:DISL:BSCA:1,2012-04-06T07:30:00Z,30.3288,-87.8293,1.85,11.82,1111122 
DISL,ioos:station:DISL:BSCA:1,2012-04-06T08:00:00Z,30.3288,-87.8293,1.834,11.82,1111122 
DISL,ioos:station:DISL:BSCA:1,2012-04-06T08:30:00Z,30.3288,-87.8293,1.845,11.82,1111122 
DISL,ioos:station:DISL:BSCA:1,2012-04-06T09:00:00Z,30.3288,-87.8293,1.865,11.85,1111122 
DISL,ioos:station:DISL:BSCA:1,2012-04-06T09:30:00Z,30.3288,-87.8293,1.883,11.85,1111122 
DISL,ioos:station:DISL:BSCA:1,2012-04-06T10:00:00Z,30.3288,-87.8293,1.911,11.77,1111122 
DISL,ioos:station:DISL:BSCA:1,2012-04-06T10:30:00Z,30.3288,-87.8293,1.915,11.83,1111122 
DISL,ioos:station:DISL:BSCA:1,2012-04-06T11:00:00Z,30.3288,-87.8293,1.937,11.83,1111122 
DISL,ioos:station:DISL:BSCA:1,2012-04-06T11:30:00Z,30.3288,-87.8293,1.955,11.84,1111122 
DISL,ioos:station:DISL:BSCA:1,2012-04-06T12:00:00Z,30.3288,-87.8293,1.963,11.82,1111122 
DISL,ioos:station:DISL:BSCA:1,2012-04-06T12:30:00Z,30.3288,-87.8293,1.989,11.83,1111122 
DISL,ioos:station:DISL:BSCA:1,2012-04-06T13:00:00Z,30.3288,-87.8293,1.981,11.9,1111122 
DISL,ioos:station:DISL:BSCA:1,2012-04-06T13:30:00Z,30.3288,-87.8293,2.004,11.99,1111122 
DISL,ioos:station:DISL:BSCA:1,2012-04-06T14:00:00Z,30.3288,-87.8293,2.017,12.01,1111122 